Weather in Aeroport

Russia / Volgograd Oblast     48°47′46″N   44°21′14″E
temp.,
°C
wind,
m/s
gust,
m/s
humid.,
%
clouds,
%
prec.,
mm/h
press.,
hPa
HPBL,
m
27 july, tue
tue2700:00+24ene410367 0.0 1020252
03:00+21ene474010 0.0 1020142
06:00+21ne594393 0.0 1021276
09:00+26ene5631100 0.0 1020532
12:00+29ne4327100 0.0 10201627
15:00+30ne5521100 0.0 10182735
18:00+30ne5521100 0.0 10172051
21:00+25ne3530100 0.0 101779
28 july, wed
wed2800:00+23nne2232100 0.0 101722
03:00+21nw22375 0.0 101719
06:00+23nnw223480 0.0 101783
09:00+28n33292 0.0 1017813
12:00+31n342615 0.0 10162956
15:00+32n442376 0.0 10153158
18:00+31ne442526 0.0 10142475
21:00+27e2332100 0.0 101560
29 july, thu
thu2900:00+25ese333772 0.0 101553
03:00+23sse224287 0.0 101523
06:00+24ssw3438100 0.0 1015117
09:00+30sw4528100 0.0 1014852
12:00+33wsw452191 0.0 10123390
15:00+34wsw66186 0.0 10113316
18:00+32w782397 0.0 10101755
21:00+29wnw363099 0.0 1011149
30 july, fri
fri3000:00+26w22365 0.0 101127
03:00+25wsw223935 0.0 101123
06:00+26w23405 0.0 101197
09:00+32wsw342940 0.0 10111054
12:00+35wsw55205 0.0 10103196
15:00+35wsw651931 0.0 10093261
18:00+34wsw45201 0.0 10082357
21:00+28wnw33315 0.0 100944
31 july, sat
sat3100:00+25nnw475348 0.0 1010147
03:00+24e225743 0.0 100919
06:00+26s005098 0.0 101049
09:00+30wsw233662 0.0 1010545
12:00+36sw342167 0.0 10093460
15:00+37wsw541746 0.0 10083517
18:00+35w54198 0.0 10082253
21:00+27nnw7114510 0.0 1010277